Onweer van: 25-07-2021 11:00 tot: 20:00 waarschuwing voor: Onweer niveau: Geel info button


waarschuwing voor Onweer Meer informatie blitzortung!


Regen radar Meer informatie rain snow radar


Bezoek onze andere website:

Template documentation
and downloads

And another site



15 daagse weersverwachting Mölndal (SE)

  • Overzicht
  • Per uur
  • 15 dagen
  • Extra
  • Vergelijk
  • Kaarten
  • Dagkaart
  • Meer »
  • Info
  • Statistieken
  • Directe link
    Temp 6h Neerslag Wind  
 04:57     21:42    Daglengte: 16:45 Vandaag
08:00
19°
 
4
14:00
26°
 
4
20:00
26°
 
3
 04:59     21:40    Daglengte: 16:41 Morgen
02:00
19°
 
4
08:00
20°
 
5
14:00
28°
0.6 mm
3
warningclass
20:00
24°
1.0 mm
3
warningclass
 05:01     21:38    Daglengte: 16:37 Dinsdag 27 Jul
02:00
20°
1.5 mm
2
warningclass
08:00
20°
10.1 mm
4
warningclass
14:00
21°
17.8 mm
5
20:00
20°
1.6 mm
4
 05:03     21:36    Daglengte: 16:33 Woensdag 28 Jul
02:00
17°
9.5 mm
2
Locatie info
Region: Västra Götalands län
Latitude: 57.6547°N
Longitude: 12.0119°E
9 masl
Postcode: 431 31
Temp/Neerslag /Baro Onweer/Dauwpunt
    Temp Baro 1h Neerslag Dauwpunt Wind UV Bewolking  
 04:57     21:42    Daglengte: 16:45 Vandaag
06:00
17°
1015.3 hPa   15.0°
3
Windvlaag: 2.7 m/s
19%
07:00
18°
1015.3 hPa   14.0°
3
Windvlaag: 3.2 m/s
33%
08:00
19°
1015.2 hPa   13.0°
4
Windvlaag: 3.8 m/s
45%
09:00
20°
1015.1 hPa   11.9°
4
Windvlaag: 3.9 m/s
52%
10:00
22°
1015.2 hPa   11.9°
4
Windvlaag: 3.9 m/s
41%
11:00
23°
1015.1 hPa   12.2°
5
Windvlaag: 4.1 m/s
60%
12:00
24°
1015.0 hPa   12.0°
4
Windvlaag: 3.9 m/s
56%
13:00
25°
1014.9 hPa   11.9°
4
Windvlaag: 4 m/s
66%
14:00
26°
1014.7 hPa   11.5°
4
Windvlaag: 4.1 m/s
71%
15:00
27°
Voelt als: 26.5°
1014.5 hPa   10.8°
3
Windvlaag: 4.3 m/s
69%
16:00
27°
Voelt als: 26.6°
1014.3 hPa   10.7°
3
Windvlaag: 4.2 m/s
77%
17:00
27°
Voelt als: 26.6°
1014.0 hPa   10.6°
3
Windvlaag: 4 m/s
78%
18:00
27°
Voelt als: 26.4°
1013.7 hPa   10.2°
3
Windvlaag: 3.9 m/s
66%
19:00
26°
Voelt als: 26.2°
1013.6 hPa   10.0°
3
Windvlaag: 3.4 m/s
50%
20:00
26°
1013.5 hPa   10.6°
3
Windvlaag: 3.9 m/s
31%
21:00
24°
1013.9 hPa   12.2°
2
Windvlaag: 4.2 m/s
22%
22:00
22°
1014.3 hPa   13.2°
2
Windvlaag: 4.1 m/s
25%
23:00
21°
1014.6 hPa   13.9°
3
Windvlaag: 3.8 m/s
34%
 04:59     21:40    Daglengte: 16:41 Morgen
00:00
21°
1014.8 hPa   13.9°
3
Windvlaag: 3.6 m/s
60%
01:00
20°
1014.8 hPa   14.4°
4
Windvlaag: 3.5 m/s
41%
02:00
19°
1014.5 hPa   14.7°
4
Windvlaag: 3 m/s
36%
03:00
19°
1014.5 hPa   14.8°
4
Windvlaag: 3.2 m/s
9%
04:00
18°
1014.3 hPa   14.9°
4
Windvlaag: 3.6 m/s
22%
05:00
18°
1014.0 hPa   14.0°
4
Windvlaag: 3.1 m/s
40%
06:00
18°
1013.8 hPa
11%
13.4°
4
Windvlaag: 3.1 m/s
39%
07:00
19°
1013.7 hPa
12%
13.2°
4
Windvlaag: 3.3 m/s
27%
08:00
20°
1013.5 hPa
14%
14.9°
5
Windvlaag: 2.6 m/s
35%
09:00
21°
1013.6 hPa
14%
17.6°
4
Windvlaag: 2.7 m/s
63%
10:00
23°
1013.4 hPa
14%
19.4°
4
Windvlaag: 2.9 m/s
80%
11:00
24°
1013.3 hPa
14%
19.4°
4
Windvlaag: 3 m/s
82%
12:00
26°
1013.0 hPa
16%
16.6°
4
Windvlaag: 3.3 m/s
79%
13:00
28°
1012.6 hPa
68%
15.9°
4
Windvlaag: 4.9 m/s
83%
14:00
28°
1012.0 hPa 0.6 mm
77%
15.1°
3
Windvlaag: 5.3 m/s
85% warningclass
15:00
26°
1011.7 hPa
72%
18.9°
3
Windvlaag: 5.5 m/s
86%
16:00
25°
1011.8 hPa 1.0 mm
80%
19.5°
3
Windvlaag: 5.7 m/s
84%
17:00
25°
1011.4 hPa
76%
18.5°
4
Windvlaag: 4.7 m/s
86%
18:00
24°
1011.3 hPa
78%
19.0°
4
Windvlaag: 4.7 m/s
77%
19:00
24°
1011.0 hPa
82%
18.9°
3
Windvlaag: 4.5 m/s
66%
20:00
24°
1010.5 hPa
77%
18.7°
3
Windvlaag: 4 m/s
83%
21:00
23°
1010.4 hPa
31%
18.1°
3
Windvlaag: 0.2 m/s
80%
22:00
22°
1010.3 hPa
23%
16.0°
3
Windvlaag: -0.3 m/s
76%
23:00
21°
1010.1 hPa
30%
20.6°
2
Windvlaag: 0.2 m/s
98%
 05:01     21:38    Daglengte: 16:37 Dinsdag 27 Jul
00:00
21°
1010.1 hPa 1.5 mm
41%
20.2°
2
Windvlaag: -0.2 m/s
94% warningclass
01:00
20°
1009.9 hPa
85%
20.2°
2
Windvlaag: 0.1 m/s
95%
02:00
20°
1009.8 hPa
92%
19.6°
2
Windvlaag: -0.4 m/s
92%
03:00
19°
1009.7 hPa 2.2 mm
100%
19.3°
2
Windvlaag: 0.4 m/s
92% warningclass
04:00
19°
1009.4 hPa 1.7 mm
100%
18.8°
3
Windvlaag: 1.7 m/s
99% warningclass
05:00
19°
1009.0 hPa 1.8 mm
100%
18.6°
3
Windvlaag: 0.5 m/s
99% warningclass
06:00
19°
1008.6 hPa 1.5 mm
100%
18.3°
3
Windvlaag: 0.7 m/s
100%
07:00
20°
1008.4 hPa 1.3 mm
100%
18.7°
3
Windvlaag: 1.7 m/s
100% warningclass
08:00
20°
1008.1 hPa 1.6 mm
100%
18.2°
4
Windvlaag: 3.5 m/s
99% warningclass
09:00
20°
1007.3 hPa 1.9 mm
100%
16.4°
3
Windvlaag: 6.7 m/s
99% warningclass
10:00
20°
1007.1 hPa 3.7 mm
100%
16.5°
2
Windvlaag: 7.9 m/s
100% warningclass
11:00
19°
1006.9 hPa 6.9 mm
100%
17.1°
2
Windvlaag: 8.3 m/s
100% warningclass
12:00
20°
1006.9 hPa 1.8 mm
100%
16.9°
4
Windvlaag: 8.9 m/s
100%
13:00
21°
1007.1 hPa 1.8 mm
100%
16.2°
4
Windvlaag: 9.5 m/s
96%
14:00
21°
1007.3 hPa 1.6 mm
100%
16.3°
5
Windvlaag: 9.5 m/s
67%
15:00
21°
1007.4 hPa 1.6 mm
100%
16.2°
5
Windvlaag: 8.3 m/s
46%
16:00
21°
1007.5 hPa
95%
15.8°
5
Windvlaag: 7.3 m/s
61%
17:00
21°
1007.5 hPa
80%
15.4°
5
Windvlaag: 7.5 m/s
23%
18:00
21°
1007.5 hPa
88%
15.0°
4
Windvlaag: 7.7 m/s
41%
19:00
20°
1007.4 hPa
78%
15.8°
4
Windvlaag: 7 m/s
58%
20:00
20°
1007.4 hPa
35%
16.4°
4
Windvlaag: 6.8 m/s
26%
21:00
19°
1007.9 hPa
87%
16.4°
3
Windvlaag: 5.6 m/s
17%
22:00
18°
1008.2 hPa 1.6 mm
88%
17.2°
3
Windvlaag: 6.6 m/s
64%
23:00
18°
1008.5 hPa 1.6 mm
96%
17.5°
3
Windvlaag: 5.9 m/s
65%
 05:03     21:36    Daglengte: 16:33 Woensdag 28 Jul
00:00
18°
1008.7 hPa 1.7 mm
100%
17.6°
3
Windvlaag: 6.1 m/s
62%
01:00
18°
1009.0 hPa 1.6 mm
100%
17.5°
3
Windvlaag: 5.8 m/s
62%
02:00
17°
1008.8 hPa
49%
17.3°
2
Windvlaag: 4.5 m/s
58%
Temp/Neerslag /Baro Onweer/Dauwpunt
    Temp Baro Neerslag Dauwpunt Wind Bewolking  
 04:57     21:42    Daglengte: 16:45 Vandaag
08:00
19°
1015.2 hPa   13.0°
4
45%
11:00
23°
1015.1 hPa   12.2°
5
60%
14:00
26°
1014.7 hPa   11.5°
4
71%
17:00
27°
Voelt als: 26.6°
1014.0 hPa   10.6°
3
78%
20:00
26°
1013.5 hPa   10.6°
3
31%
23:00
21°
1014.6 hPa   13.9°
3
34%
 04:59     21:40    Daglengte: 16:41 Morgen
02:00
19°
1014.5 hPa   14.7°
4
36%
05:00
18°
1014.0 hPa   14.0°
4
40%
08:00
20°
1013.5 hPa   14.9°
5
35%
11:00
24°
1013.3 hPa   19.4°
4
82%
14:00
28°
1012.0 hPa 0.6 mm 15.1°
3
85% warningclass
17:00
25°
1011.4 hPa 1.0 mm 18.5°
4
86%
20:00
24°
1010.5 hPa   18.7°
3
83%
23:00
21°
1010.1 hPa   20.6°
2
98%
 05:01     21:38    Daglengte: 16:37 Dinsdag 27 Jul
02:00
20°
1009.8 hPa 1.5 mm 19.6°
2
92% warningclass
05:00
19°
1009.0 hPa 5.7 mm 18.6°
3
99% warningclass
08:00
20°
1008.1 hPa 4.4 mm 18.2°
4
99% warningclass
11:00
19°
1006.9 hPa 12.6 mm 17.1°
2
100% warningclass
14:00
21°
1007.3 hPa 5.2 mm 16.3°
5
67%
17:00
21°
1007.5 hPa 1.6 mm 15.4°
5
23%
20:00
20°
1007.4 hPa   16.4°
4
26%
23:00
18°
1008.5 hPa 3.2 mm 17.5°
3
65%
 05:03     21:36    Daglengte: 16:33 Woensdag 28 Jul
02:00
17°
1008.8 hPa 4.8 mm 17.3°
2
58%
05:00
16°
1007.9 hPa 15.4 mm 15.7°
1
0%
08:00
19°
1007.8 hPa 15.5 mm 15.9°
2
1%
11:00
21°
1007.2 hPa 15.6 mm 13.8°
3
1%
14:00
20°
1006.6 hPa 15.8 mm 14.7°
3
1%
17:00
21°
1006.0 hPa 17.0 mm 15.3°
5
1%
20:00
19°
1005.9 hPa 18.4 mm 16.3°
4
0%
23:00
17°
1006.0 hPa 19.4 mm 15.5°
4
0%
 05:05     21:34    Daglengte: 16:29 Donderdag 29 Jul
02:00
16°
1006.3 hPa 19.6 mm 14.6°
6
0%
05:00
16°
1006.5 hPa 19.8 mm 12.7°
6
1%
08:00
17°
1006.9 hPa 19.8 mm 12.1°
6
1%
11:00
19°
1007.2 hPa 19.8 mm 11.4°
6
0%
14:00
20°
1006.5 hPa 19.9 mm 11.4°
5
0%
17:00
21°
1005.5 hPa 20.5 mm 11.8°
6
0%
20:00
19°
1004.1 hPa 20.8 mm 13.2°
5
1%
23:00
17°
1003.1 hPa 21.2 mm 12.1°
5
0%
 05:07     21:32    Daglengte: 16:25 Vrijdag 30 Jul
02:00
16°
1001.0 hPa 24.1 mm 14.9°
5
1%
05:00
16°
999.5 hPa 27.5 mm 13.8°
8
1%
08:00
16°
1000.4 hPa 27.7 mm 11.0°
9
1%
11:00
17°
1000.2 hPa 28.5 mm 11.2°
9
0%
14:00
18°
1000.5 hPa 30.4 mm 12.2°
9
0%
17:00
18°
1000.1 hPa 31.6 mm 10.9°
9
0%
20:00
16°
999.1 hPa 32.7 mm 11.9°
8
1%
23:00
15°
999.0 hPa 34.0 mm 12.1°
8
0%
 05:09     21:29    Daglengte: 16:20 Zaterdag 31 Jul
02:00
15°
999.0 hPa 34.9 mm 12.6°
9
1%
05:00
15°
998.9 hPa 35.5 mm 12.1°
8
1%
08:00
16°
999.6 hPa 36.2 mm 11.4°
7
1%
11:00
18°
1000.7 hPa 36.3 mm 9.6°
7
1%
14:00
19°
1000.5 hPa 36.4 mm 9.4°
6
1%
17:00
19°
1000.0 hPa 36.6 mm 9.7°
4
1%
20:00
17°
999.8 hPa 37.0 mm 12.9°
4
1%
23:00
14°
1000.5 hPa 37.6 mm 12.3°
4
1%
 05:11     21:27    Daglengte: 16:16 Zondag 01 Aug
02:00
14°
1000.9 hPa 37.7 mm 9.7°
5
1%
05:00
15°
1000.9 hPa   9.2°
6
1%
08:00
15°
1001.6 hPa 75.9 mm 10.0°
7
1%
14:00
16°
1003.9 hPa 78.2 mm 12.2°
8
1%
20:00
16°
1006.0 hPa 81.0 mm 10.7°
6
1%
 05:13     21:25    Daglengte: 16:12 Maandag 02 Aug
02:00
14°
1007.3 hPa 81.5 mm 9.3°
5
1%
08:00
15°
1007.7 hPa 82.1 mm 10.3°
3
0%
14:00
19°
1009.0 hPa 84.5 mm 7.7°
4
1%
20:00
17°
1009.6 hPa 84.7 mm 10.5°
1
1%
 05:15     21:23    Daglengte: 16:08 Dinsdag 03 Aug
02:00
12°
1011.4 hPa 84.7 mm 9.8°
1
1%
14:00
20°
1013.1 hPa 127.2 mm 9.4°
3
1%
20:00
17°
1013.4 hPa 86.6 mm 13.0°
1
1%
 05:17     21:21    Daglengte: 16:04 Woensdag 04 Aug
02:00
14°
1005.2 hPa 0.8 mm 11.2°
1
58%
08:00
15°
1005.5 hPa   11.6°
1
63%
14:00
19°
1006.0 hPa 1.8 mm 12.4°
2
72%
20:00
17°
1006.5 hPa 1.8 mm 12.6°
2
60%
 05:19     21:18    Daglengte: 15:59 Donderdag 05 Aug
02:00
14°
1007.5 hPa 0.7 mm 11.7°
1
51%
08:00
16°
1007.9 hPa 0.8 mm 12.4°
2
51%
14:00
19°
1008.5 hPa 1.1 mm 12.5°
3
53%
20:00
17°
1008.7 hPa 0.6 mm 12.6°
2
43%
 05:21     21:16    Daglengte: 15:55 Vrijdag 06 Aug
02:00
14°
1009.3 hPa 0.3 mm 12.0°
1
50%
08:00
16°
1009.3 hPa 0.8 mm 12.7°
2
61%
14:00
19°
1009.4 hPa 1.1 mm 13.0°
4
62%
20:00
17°
1009.2 hPa 0.8 mm 13.0°
3
63%
 05:23     21:14    Daglengte: 15:51 Zaterdag 07 Aug
02:00
15°
1009.5 hPa 0.5 mm 12.7°
2
63%
08:00
16°
1009.1 hPa 1.2 mm 13.1°
2
70%
14:00
19°
1009.0 hPa 0.3 mm 13.0°
3
69%
20:00
18°
1008.7 hPa   13.5°
2
61%
 05:25     21:11    Daglengte: 15:46 Zondag 08 Aug
02:00
15°
1008.6 hPa 1.3 mm 12.7°
1
76%
08:00
16°
1008.3 hPa 1.6 mm 13.2°
2
80%
14:00
19°
1008.5 hPa 2.2 mm 13.3°
3
77%
20:00
17°
1008.4 hPa 1.3 mm 13.6°
2
59%
 05:27     21:09    Daglengte: 15:42 Maandag 09 Aug
02:00
15°
1008.6 hPa 1.3 mm 13.3°
3
61%
08:00
16°
1008.6 hPa 2.0 mm 13.4°
3
69%
  CAPE Lifted Index Hail Supercell Tornado SRH 3km CL BTM PRES CL TOP PRES Swiss DWD icon SMHI TS
 04:57     21:42    Daglengte: 16:45 Vandaag
06:00 0 J/kg 6.0 K 0 % 0 % 0 % 0 m²/s² 0 0 10.11 3
07:00 0 J/kg 7.2 K 0 % 0 % 0 % 0 m²/s² 0 0 11.1 3
08:00 0 J/kg 6.2 K 0 % 0 % 0 % 0 m²/s² 0 0 9.98 3
09:00 0 J/kg 5.2 K 0 % 0 % 0 % 0 m²/s² 0 0 9.1 3
10:00 0 J/kg 4.9 K 0 % 0 % 0 % 0 m²/s² 0 0 8.8 3
11:00 0 J/kg 4.7 K 0 % 0 % 0 % 0 m²/s² 0 0 8.93 3
12:00 0 J/kg 4.4 K 0 % 0 % 0 % 0 m²/s² 0 0 8.84 3
13:00 0 J/kg 3.8 K 0 % 0 % 0 % 0 m²/s² 0 0 8.48 3
14:00 0 J/kg 3.2 K 0 % 0 % 0 % 0 m²/s² 0 0 8.12 3
15:00 1 J/kg 2.8 K 0 % 0 % 0 % 0 m²/s² 0 0 7.48 3
16:00 2 J/kg 2.0 K 0 % 0 % 0 % 0 m²/s² 0 0 6.8 3
17:00 2 J/kg 1.6 K 0 % 0 % 0 % 0 m²/s² 0 0 6.76 3
18:00 0 J/kg 1.9 K 0 % 0 % 0 % 0 m²/s² 0 0 7.36 3
19:00 2 J/kg 1.6 K 0 % 0 % 0 % 0 m²/s² 0 0 6.79 2
20:00 10 J/kg 1.2 K 0 % 0 % 0 % 0 m²/s² 0 0 6.27 2
21:00 6 J/kg 1.1 K 0 % 0 % 0 % 0 m²/s² 0 0 5.81 2
22:00 0 J/kg 1.5 K 0 % 0 % 0 % 0 m²/s² 0 0 6.21 3
23:00 0 J/kg 0.2 K 0 % 0 % 0 % 0 m²/s² 0 0 4.64 3
 04:59     21:40    Daglengte: 16:41 Morgen
00:00 0 J/kg 0.3 K 0 % 0 % 0 % 0 m²/s² 0 0 4.74 3
01:00 0 J/kg 1.5 K 0 % 0 % 0 % 0 m²/s² 0 0 5.94 2
02:00 0 J/kg 2.9 K 0 % 0 % 0 % 0 m²/s² 0 0 7.46 3
03:00 0 J/kg 1.3 K 0 % 0 % 0 % 0 m²/s² 0 0 5.74 3
04:00 0 J/kg 0.1 K 0 % 0 % 0 % 0 m²/s² 0 0 4.33 3
05:00 0 J/kg -0.4 K 0 % 0 % 0 % 0 m²/s² 0 0 2.03 3
06:00 0 J/kg -1.0 K 0 % 0 % 0 % 0 m²/s² 0 0 1.43 3
07:00 0 J/kg -0.9 K 0 % 0 % 0 % 0 m²/s² 0 0 0.63 3
08:00 0 J/kg -1.7 K 0 % 0 % 0 % 0 m²/s² 0 0 -0.17 3
09:00 0 J/kg -0.4 K 0 % 0 % 0 % 0 m²/s² 0 0 -0.13 3
10:00 242 J/kg -1.1 K 0 % 0 % 0 % 0 m²/s² 0 0 0.16 3
11:00 866 J/kg -3.0 K 0 % 0 % 0 % 0 m²/s² 0 0 -0.33 3
12:00 948 J/kg -3.3 K 0 % 0 % 0 % 0 m²/s² 0 0 -1.08 3
13:00 977 J/kg -3.4 K 0 % 0 % 0 % 0 m²/s² 0 0 -3.28 3
14:00 820 J/kg -2.9 K 0 % 0 % 0 % 0 m²/s² 0 0 -2.45 80
15:00 319 J/kg -1.1 K 0 % 0 % 0 % 0 m²/s² 0 0 -0.53 3
16:00 216 J/kg -0.8 K 0 % 0 % 0 % 0 m²/s² 0 0 -0.32 80
17:00 187 J/kg -0.9 K 0 % 0 % 0 % 0 m²/s² 0 0 -0.54 61
18:00 201 J/kg -1.7 K 0 % 0 % 0 % 0 m²/s² 0 0 -1.13 3
19:00 576 J/kg -2.2 K 0 % 0 % 0 % 0 m²/s² 0 0 -1.12 80
20:00 941 J/kg -3.6 K 0 % 0 % 0 % 0 m²/s² 0 0 -2.7 3
21:00 1054 J/kg -3.8 K 0 % 0 % 0 % 0 m²/s² 0 0 -2.12 3
22:00 987 J/kg -3.6 K 0 % 0 % 0 % 0 m²/s² 0 0 -1.59 3
23:00 1179 J/kg -4.4 K 0 % 0 % 0 % 0 m²/s² 0 0 -2.48 3
 05:01     21:38    Daglengte: 16:37 Dinsdag 27 Jul
00:00 1291 J/kg -5.1 K 0 % 0 % 0 % 0 m²/s² 0 0 -3.06 3
01:00 1167 J/kg -4.4 K 0 % 0 % 0 % 0 m²/s² 0 0 -1.94 61
02:00 1004 J/kg -4.3 K 0 % 0 % 0 % 0 m²/s² 0 0 -2.11 61
03:00 791 J/kg -3.5 K 0 % 0 % 0 % 0 m²/s² 0 0 -1.73 95
04:00 915 J/kg -3.9 K 0 % 0 % 0 % 0 m²/s² 0 0 -2.13 80
05:00 931 J/kg -4.4 K 0 % 0 % 0 % 0 m²/s² 0 0 -2.69 61
06:00 835 J/kg -4.2 K 0 % 0 % 0 % 0 m²/s² 0 0 -1.53 61
07:00 1072 J/kg -4.3 K 0 % 0 % 0 % 0 m²/s² 0 0 -2.59 61
08:00 1390 J/kg -5.0 K 0 % 0 % 0 % 0 m²/s² 0 0 -3.23 61
09:00 1433 J/kg -5.2 K 0 % 0 % 0 % 0 m²/s² 0 0 -3.04 61
10:00 1422 J/kg -5.3 K 0 % 0 % 0 % 0 m²/s² 0 0 -3.89 63
11:00 1183 J/kg -4.7 K 0 % 0 % 0 % 0 m²/s² 0 0 -3.17 63
12:00 749 J/kg -3.1 K 0 % 0 % 0 % 0 m²/s² 0 0 -0.73 80
13:00 318 J/kg -1.6 K 0 % 0 % 0 % 0 m²/s² 0 0 1.22 80
14:00 192 J/kg -0.9 K 0 % 0 % 0 % 0 m²/s² 0 0 1.92 80
15:00 171 J/kg -0.7 K 0 % 0 % 0 % 0 m²/s² 0 0 2.27 2
16:00 205 J/kg -0.5 K 0 % 0 % 0 % 0 m²/s² 0 0 1.99 2
17:00 198 J/kg -0.1 K 0 % 0 % 0 % 0 m²/s² 0 0 1.16 2
18:00 305 J/kg -0.3 K 0 % 0 % 0 % 0 m²/s² 0 0 1.05 2
19:00 522 J/kg -1.0 K 0 % 0 % 0 % 0 m²/s² 0 0 0.95 2
20:00 629 J/kg -1.4 K 0 % 0 % 0 % 0 m²/s² 0 0 1.18 2
21:00 707 J/kg -1.9 K 0 % 0 % 0 % 0 m²/s² 0 0 -0.49 3
22:00 773 J/kg -2.4 K 0 % 0 % 0 % 0 m²/s² 0 0 -0.81 80
23:00 833 J/kg -2.8 K 0 % 0 % 0 % 0 m²/s² 0 0 -1.03 80
 05:03     21:36    Daglengte: 16:33 Woensdag 28 Jul
00:00 784 J/kg -2.4 K 0 % 0 % 0 % 0 m²/s² 0 0 0.48 80
01:00 908 J/kg -2.9 K 0 % 0 % 0 % 0 m²/s² 0 0 0.13 80
02:00 899 J/kg -3.0 K 0 % 0 % 0 % 0 m²/s² 0 0 0.75 2
Temp Baro Wind Neerslag
  EWN Forecast EWN WRFDA DWD ICON FMI HIRLAM MET Norway GFS
 04:57     21:42    Daglengte: 16:45 Vandaag
08:00 18.6° 1015.2 hPa 3.6 m/s 0.0 mm 18.0° 1014.6 hPa 4.2 m/s 0.0 mm 18.4° 1015.3 hPa 3.4 m/s -2.0 mm 18.4° 1015.5 hPa 4.7 m/s 0.0 mm 19.0° 1015.3 hPa 4.2 m/s
11:00 23.2° 1015.1 hPa 4.6 m/s 0.0 mm 22.6° 1014.2 hPa 5.5 m/s 0.0 mm 22.2° 1015.2 hPa 4.0 m/s 0.0 mm 23.3° 1015.2 hPa 5.2 m/s 0.0 mm 23.8° 1015.0 hPa 3.8 m/s
14:00 26.3° 1014.7 hPa 3.6 m/s 0.0 mm 25.7° 1013.8 hPa 4.1 m/s 0.0 mm 25.3° 1014.7 hPa 3.1 m/s 0.0 mm 26.9° 1014.9 hPa 4.2 m/s 0.0 mm 26.6° 1014.3 hPa 2.4 m/s
17:00 26.8° 1014.0 hPa 3.3 m/s 0.0 mm 26.9° 1013.0 hPa 3.8 m/s 0.0 mm 25.6° 1014.2 hPa 3.1 m/s 0.0 mm 27.3° 1014.0 hPa 3.3 m/s 0.0 mm 26.4° 1013.5 hPa 1.3 m/s
20:00 25.5° 1013.5 hPa 3.0 m/s 0.0 mm 25.3° 1012.1 hPa 2.9 m/s 0.0 mm 24.6° 1013.6 hPa 2.3 m/s 0.0 mm 26.1° 1013.6 hPa 3.5 m/s 0.0 mm 21.5° 1013.9 hPa 1.6 m/s
23:00 21.1° 1014.6 hPa 2.7 m/s 0.0 mm 21.4° 1013.2 hPa 4.3 m/s 0.0 mm 19.9° 1014.6 hPa 1.6 m/s 0.0 mm 21.1° 1014.8 hPa 2.9 m/s 0.0 mm 20.1° 1014.4 hPa 1.7 m/s
 04:59     21:40    Daglengte: 16:41 Morgen
02:00 19.3° 1014.5 hPa 3.6 m/s 0.0 mm 18.3° 1012.9 hPa 4.3 m/s 0.0 mm 19.1° 1014.7 hPa 2.3 m/s 0.0 mm 19.2° 1014.9 hPa 4.2 m/s 0.0 mm 18.0° 1014.3 hPa 3.2 m/s
05:00 18.0° 1014.0 hPa 4.2 m/s 0.0 mm 19.2° 1012.1 hPa 5.3 m/s 0.0 mm 17.1° 1014.2 hPa 2.9 m/s 0.0 mm 17.7° 1014.2 hPa 4.2 m/s 0.0 mm 16.9° 1013.7 hPa 4.2 m/s
08:00 20.3° 1013.5 hPa 4.5 m/s 0.0 mm 20.3° 1011.4 hPa 4.3 m/s 1.3 mm 19.6° 1014.0 hPa 3.7 m/s 0.0 mm 20.2° 1013.4 hPa 4.7 m/s 0.0 mm 20.1° 1013.2 hPa 4.5 m/s
11:00 24.1° 1013.3 hPa 4.2 m/s 0.0 mm 25.4° 1010.5 hPa 4.8 m/s 3.1 mm 24.0° 1013.6 hPa 2.9 m/s 0.0 mm 22.0° 1013.3 hPa 4.4 m/s 0.0 mm 20.2° 1013.8 hPa 4.0 m/s
14:00 27.9° 1012.0 hPa 3.2 m/s 0.6 mm 25.5° 1009.4 hPa 5.8 m/s 5.1 mm 25.7° 1012.3 hPa 0.7 m/s 0.3 mm 29.2° 1011.8 hPa 4.7 m/s 0.0 mm 24.5° 1012.9 hPa 3.1 m/s
17:00 24.6° 1011.4 hPa 3.9 m/s 1.0 mm 21.6° 1008.9 hPa 5.4 m/s 9.2 mm 24.1° 1011.6 hPa 2.5 m/s 0.8 mm 27.2° 1011.4 hPa 4.7 m/s 0.0 mm 21.3° 1011.7 hPa 0.7 m/s
20:00 23.8° 1010.5 hPa 3.2 m/s 0.0 mm 22.1° 1007.5 hPa 2.3 m/s 9.8 mm 22.4° 1010.4 hPa 1.4 m/s 0.6 mm 25.3° 1010.6 hPa 3.7 m/s 0.0 mm 21.5° 1011.8 hPa 2.6 m/s
23:00 21.2° 1010.1 hPa 1.9 m/s 0.0 mm 19.6° 1007.2 hPa 1.5 m/s 10.2 mm 21.2° 1010.2 hPa 1.1 m/s 0.0 mm 17.5° 1012.3 hPa 3.2 m/s
 05:01     21:38    Daglengte: 16:37 Dinsdag 27 Jul
02:00 19.7° 1009.8 hPa 2.1 m/s 1.5 mm 18.8° 1006.2 hPa 2.1 m/s 10.4 mm 19.6° 1010.1 hPa 1.1 m/s 0.1 mm 17.8° 1011.9 hPa 2.9 m/s
05:00 18.9° 1009.0 hPa 2.9 m/s 5.7 mm 18.3° 1006.2 hPa 3.0 m/s 10.4 mm 18.6° 1009.2 hPa 1.9 m/s 3.4 mm 16.9° 1010.8 hPa 2.6 m/s
08:00 20.3° 1008.1 hPa 3.6 m/s 4.4 mm 21.3° 1005.3 hPa 4.2 m/s 10.4 mm 19.1° 1008.3 hPa 2.3 m/s 1.4 mm 17.1° 1009.8 hPa 2.8 m/s
11:00 19.2° 1006.9 hPa 2.2 m/s 12.6 mm 20.8° 1006.4 hPa 6.2 m/s 11.3 mm 18.8° 1007.0 hPa 1.2 m/s 13.3 mm 19.9° 1009.5 hPa 1.5 m/s
14:00 21.0° 1007.3 hPa 4.7 m/s 5.2 mm 20.8° 1007.8 hPa 6.6 m/s 13.1 mm 21.1° 1007.1 hPa 4.3 m/s 1.2 mm 23.5° 1009.0 hPa 4.0 m/s
17:00 21.0° 1007.5 hPa 4.6 m/s 1.6 mm 21.6° 1007.8 hPa 5.7 m/s 13.1 mm 20.8° 1007.4 hPa 4.3 m/s 0.2 mm 22.7° 1009.1 hPa 4.4 m/s
20:00 19.8° 1007.4 hPa 3.6 m/s 0.0 mm 20.7° 1006.7 hPa 3.9 m/s 13.1 mm 19.5° 1007.5 hPa 3.5 m/s 0.1 mm 20.7° 1008.6 hPa 3.0 m/s
23:00 18.0° 1008.5 hPa 2.9 m/s 3.2 mm 18.2° 1007.8 hPa 2.4 m/s 13.2 mm 17.9° 1008.7 hPa 3.0 m/s 0.5 mm 17.8° 1009.0 hPa 1.7 m/s
 05:03     21:36    Daglengte: 16:33 Woensdag 28 Jul
02:00 17.4° 1008.8 hPa 2.0 m/s 4.8 mm 16.1° 1007.2 hPa 2.1 m/s 13.2 mm 17.8° 1009.2 hPa 2.0 m/s 0.6 mm 17.2° 1008.7 hPa 2.1 m/s
05:00 16.4° 1007.9 hPa 1.2 m/s 15.4 mm 16.4° 1007.9 hPa 1.2 m/s 15.4 mm
08:00 19.0° 1007.8 hPa 2.1 m/s 15.5 mm 19.0° 1007.8 hPa 2.1 m/s 15.5 mm
11:00 21.2° 1007.2 hPa 3.3 m/s 15.6 mm 21.2° 1007.2 hPa 3.3 m/s 15.6 mm
14:00 20.5° 1006.6 hPa 3.3 m/s 15.8 mm 20.5° 1006.6 hPa 3.3 m/s 15.8 mm
17:00 20.6° 1006.0 hPa 4.7 m/s 17.0 mm 20.6° 1006.0 hPa 4.7 m/s 17.0 mm
20:00 18.5° 1005.9 hPa 4.0 m/s 18.4 mm 18.5° 1005.9 hPa 4.0 m/s 18.4 mm
23:00 16.5° 1006.0 hPa 4.5 m/s 19.4 mm 16.5° 1006.0 hPa 4.5 m/s 19.4 mm
 05:05     21:34    Daglengte: 16:29 Donderdag 29 Jul
02:00 16.2° 1006.3 hPa 6.2 m/s 19.6 mm 16.2° 1006.3 hPa 6.1 m/s 19.6 mm
05:00 16.2° 1006.5 hPa 6.1 m/s 19.8 mm 16.2° 1006.5 hPa 6.1 m/s 19.8 mm
08:00 16.9° 1006.9 hPa 5.6 m/s 19.8 mm 16.9° 1006.9 hPa 5.6 m/s 19.8 mm
11:00 18.7° 1007.2 hPa 6.0 m/s 19.8 mm 18.7° 1007.2 hPa 6.0 m/s 19.8 mm
14:00 20.2° 1006.5 hPa 5.4 m/s 19.9 mm 20.2° 1006.5 hPa 5.4 m/s 19.9 mm
17:00 20.6° 1005.5 hPa 5.7 m/s 20.5 mm 20.6° 1005.5 hPa 5.7 m/s 20.5 mm
20:00 19.4° 1004.1 hPa 4.5 m/s 20.8 mm 19.4° 1004.1 hPa 4.5 m/s 20.8 mm
23:00 17.3° 1003.1 hPa 4.7 m/s 21.2 mm 17.3° 1003.1 hPa 4.7 m/s 21.2 mm
 05:07     21:32    Daglengte: 16:25 Vrijdag 30 Jul
02:00 15.9° 1001.0 hPa 4.8 m/s 24.1 mm 15.9° 1001.0 hPa 4.8 m/s 24.1 mm
05:00 15.8° 999.5 hPa 8.4 m/s 27.5 mm 15.8° 999.5 hPa 8.4 m/s 27.5 mm
08:00 16.0° 1000.4 hPa 8.6 m/s 27.7 mm 16.0° 1000.4 hPa 8.6 m/s 27.7 mm
11:00 17.3° 1000.2 hPa 8.5 m/s 28.5 mm 17.3° 1000.2 hPa 8.5 m/s 28.5 mm
14:00 17.6° 1000.5 hPa 9.4 m/s 30.4 mm 17.6° 1000.5 hPa 9.4 m/s 30.4 mm
17:00 18.2° 1000.1 hPa 8.8 m/s 31.6 mm 18.2° 1000.1 hPa 8.8 m/s 31.5 mm
20:00 16.3° 999.1 hPa 7.8 m/s 32.7 mm 16.3° 999.1 hPa 7.8 m/s 32.7 mm
23:00 14.6° 999.0 hPa 8.3 m/s 34.0 mm 14.6° 999.0 hPa 8.3 m/s 34.0 mm
 05:09     21:29    Daglengte: 16:20 Zaterdag 31 Jul
02:00 14.9° 999.0 hPa 8.9 m/s 34.9 mm 14.9° 998.9 hPa 8.9 m/s 34.9 mm
05:00 15.2° 998.9 hPa 8.0 m/s 35.5 mm 15.2° 998.9 hPa 8.0 m/s 35.5 mm
08:00 15.5° 999.6 hPa 7.1 m/s 36.2 mm 15.5° 999.6 hPa 7.1 m/s 36.2 mm
11:00 17.9° 1000.7 hPa 6.6 m/s 36.3 mm 17.9° 1000.7 hPa 6.6 m/s 36.3 mm
14:00 19.2° 1000.5 hPa 5.6 m/s 36.4 mm 19.2° 1000.5 hPa 5.6 m/s 36.4 mm
17:00 19.2° 1000.0 hPa 4.3 m/s 36.6 mm 19.2° 1000.0 hPa 4.3 m/s 36.6 mm
20:00 16.6° 999.8 hPa 3.9 m/s 37.0 mm 16.6° 999.8 hPa 3.9 m/s 37.0 mm
23:00 14.3° 1000.5 hPa 4.2 m/s 37.6 mm 14.3° 1000.5 hPa 4.2 m/s 37.6 mm
 05:11     21:27    Daglengte: 16:16 Zondag 01 Aug
02:00 14.4° 1000.9 hPa 5.3 m/s 37.7 mm 14.4° 1000.9 hPa 5.3 m/s 37.7 mm
05:00 14.8° 1000.9 hPa 5.6 m/s 37.8 mm 14.8° 1000.9 hPa 5.6 m/s 37.8 mm
08:00 15.3° 1001.6 hPa 6.8 m/s 38.2 mm 15.3° 1001.6 hPa 6.8 m/s 38.2 mm
14:00 15.8° 1003.9 hPa 8.1 m/s 39.7 mm 15.8° 1003.9 hPa 8.1 m/s 39.7 mm
20:00 15.9° 1006.0 hPa 6.2 m/s 40.7 mm 15.9° 1006.0 hPa 6.2 m/s 40.7 mm
 05:13     21:25    Daglengte: 16:12 Maandag 02 Aug
02:00 14.5° 1007.3 hPa 4.7 m/s 40.8 mm 14.5° 1007.3 hPa 4.7 m/s 40.8 mm
08:00 15.5° 1007.7 hPa 3.3 m/s 41.2 mm 15.5° 1007.7 hPa 3.3 m/s 41.2 mm
14:00 18.6° 1009.0 hPa 3.7 m/s 42.3 mm 18.6° 1009.0 hPa 3.7 m/s 42.3 mm
20:00 16.8° 1009.6 hPa 1.1 m/s 42.3 mm 16.8° 1009.6 hPa 1.1 m/s 42.3 mm
 05:15     21:23    Daglengte: 16:08 Dinsdag 03 Aug
02:00 11.9° 1011.4 hPa 1.0 m/s 42.3 mm 11.9° 1011.4 hPa 1.0 m/s 42.3 mm
14:00 20.1° 1013.1 hPa 3.1 m/s 42.6 mm 20.1° 1013.1 hPa 3.1 m/s 42.6 mm
20:00 17.4° 1013.4 hPa 1.0 m/s 43.4 mm 17.4° 1013.4 hPa 1.0 m/s 43.4 mm
 05:17     21:21    Daglengte: 16:04 Woensdag 04 Aug
02:00 14.0° 1005.2 hPa 1.0 m/s 0.8 mm
08:00 15.3° 1005.5 hPa 0.8 m/s 0.0 mm
14:00 18.8° 1006.0 hPa 2.4 m/s 1.8 mm
20:00 17.2° 1006.5 hPa 1.6 m/s 1.8 mm
 05:19     21:18    Daglengte: 15:59 Donderdag 05 Aug
02:00 14.2° 1007.5 hPa 1.1 m/s 0.7 mm
08:00 15.6° 1007.9 hPa 1.6 m/s 0.8 mm
14:00 18.9° 1008.5 hPa 3.2 m/s 1.1 mm
20:00 17.4° 1008.7 hPa 1.9 m/s 0.6 mm
 05:21     21:16    Daglengte: 15:55 Vrijdag 06 Aug
02:00 14.5° 1009.3 hPa 1.4 m/s 0.3 mm
08:00 15.9° 1009.3 hPa 2.0 m/s 0.8 mm
14:00 19.1° 1009.4 hPa 3.9 m/s 1.1 mm
20:00 17.4° 1009.2 hPa 2.7 m/s 0.8 mm
 05:23     21:14    Daglengte: 15:51 Zaterdag 07 Aug
02:00 15.0° 1009.5 hPa 2.3 m/s 0.5 mm
08:00 16.0° 1009.1 hPa 1.5 m/s 1.2 mm
14:00 19.0° 1009.0 hPa 2.8 m/s 0.3 mm
20:00 17.6° 1008.7 hPa 1.8 m/s 0.0 mm
 05:25     21:11    Daglengte: 15:46 Zondag 08 Aug
02:00 15.1° 1008.6 hPa 1.3 m/s 1.3 mm
08:00 16.3° 1008.3 hPa 1.7 m/s 1.6 mm
14:00 18.8° 1008.5 hPa 3.1 m/s 2.2 mm
20:00 17.4° 1008.4 hPa 1.9 m/s 1.3 mm
 05:27     21:09    Daglengte: 15:42 Maandag 09 Aug
02:00 15.2° 1008.6 hPa 2.7 m/s 1.3 mm
08:00 16.1° 1008.6 hPa 2.9 m/s 2.0 mm
FMI Hirlam - 7.5 km EWN WRFDA - 12 km DWD ICON - 7 km GFS - 25 km Basiskaart






























































Updatetijd (Europe/Amsterdam) Resolutie Lengte Stap
FMI Hirlam 02:00, 08:00, 14:00, 20:00 7.5 km 49h 1h
EWN WRFDA 22:15, 04:15, 10:15, 16:15 12 km 73h 1h
DWD ICON 23:45, 05:45, 11:45, 17:45 7 km 75h 1h
GFS 02:15, 08:15, 14:15, 20:15 25 km 237h 3h
30+ mm
25-30 mm
20-25 mm
15-20 mm
10-15 mm
6-10 mm
4-6 mm
2-4 mm
1-2 mm
0.5-1 mm
0.2-0.5 mm
0.1-0.2 mm
30+ mm
25-30 mm
20-25 mm
15-20 mm
10-15 mm
6-10 mm
4-6 mm
2-4 mm
1-2 mm
0.5-1 mm
0.2-0.5 mm
0.1-0.2 mm
Sneeuwval
Natte sneeuw
Hagel
Vorst
30+ mm
25-30 mm
20-25 mm
15-20 mm
10-15 mm
6-10 mm
4-6 mm
2-4 mm
1-2 mm
0.5-1 mm
0.2-0.5 mm
0.1-0.2 mm
Sneeuwval
Natte sneeuw
Hagel
Vorst
Onweer
50 mm
40 mm
30 mm
26 mm
22 mm
18 mm
14 mm
10 mm
9 mm
8 mm
7 mm
6 mm
5 mm
4.5 mm
4 mm
3.5 mm
3 mm
2.5 mm
2 mm
1.5 mm
1 mm
0.8 mm
0.6 mm
0.4 mm
0.2 mm
0.05 mm
35°
30°
25°
20°
15°
10°
-5°
-10°
-15°
-20°
-25°
-30°
-35°
33> m/s
29 m/s
25 m/s
21 m/s
17 m/s
14 m/s
11 m/s
8 m/s
5 m/s
3 m/s
0 m/s
2600 J/kg
2400 J/kg
2200 J/kg
2000 J/kg
1800 J/kg
1600 J/kg
1400 J/kg